STARLINK-34631

Last updated on Tue Aug 19 2025 00:02:06 GMT+0000 (Coordinated Universal Time)

1 64855U 25152P 25230.58335648 -.02258791 00000+0 -58512-1 0 9994 2 64855 97.6034 84.2259 0002425 68.6747 17.6399 15.42344904 5422

Satellite not in orbit

STARLINK-34631